Location: Bakov nad Jizerou
(50.4784°N, 14.9394°E)
Time: 07:04:57
(UTC+00:00)

Cosmos 1544 Rocket - Pass Details

Date: 16 June 2021
Orbit: 603 x 632 km, 82.5° (Epoch: 05 August)

Event Time Altitude Azimuth Distance (km) Brightness Sun altitude
Rises 20:20:30 0° 352° (N) 2,940 8.2 -8.1°
Reaches altitude 10° 20:22:47 10° 356° (N) 2,026 7.2 -8.3°
Maximum altitude 20:27:15 61° 77° (ENE) 720 3.8 -8.7°
Enters shadow 20:31:25 11° 157° (SSE) 1,912 5.4 -9.1°
